Regional Weather Roundup
Issued by NWS

Home | Current Version | Previous Version | Graphics & Text | Print | Product List | Glossary On
Versions: 1 2 3 4 5 6 7 8 9 10 11 12 13 14 15 16 17 18 19 20 21 22 23 24 25 26 27 28 29 30 31 32 33 34 35 36 37 38 39 40 41 42 43 44 45 46 47 48 49 50
000
ASUS43 KMKX 210220
RWRWI

WISCONSIN REGIONAL WEATHER ROUNDUP
NATIONAL WEATHER SERVICE MILWAUKEE/SULLIVAN WI
800 PM CST TUE FEB 20 2024

NOTE: "FAIR" INDICATES FEW OR NO CLOUDS BELOW 12,000 FEET WITH NO
SIGNIFICANT WEATHER AND/OR OBSTRUCTIONS TO VISIBILITY.

WIZ001-002-006>008-014>016-023>028-210300-
NORTHWEST WISCONSIN

CITY           SKY/WX    TMP DP  RH WIND       PRES   REMARKS
SUPERIOR ARPT  MOCLDY    27  25  94 CALM      29.93S TC  -3
ASHLAND        PTCLDY    35  26  69 SW8       29.91F WCI  29 TC   2
HAYWARD        PTCLDY    32  26  78 SW5       29.93S WCI  27 TC   0
SIREN          CLEAR     35  28  78 SW5       29.95R WCI  31 TC   2
CUMBERLAND     CLEAR     36  32  87 SW7       29.94S WCI  30 TC   2
RICE LAKE      CLEAR     36  29  76 S3        29.96S TC   2
CHETEK         CLEAR     33  29  85 SW3       29.95S TC   0
LADYSMITH      PTCLDY    37  29  72 SW5       29.95S WCI  34 TC   3
EAU CLAIRE     CLEAR     39  30  70 SW5       29.96S TC   4
MENOMONIE      CLEAR     37  29  74 SW5       29.97S WCI  33 TC   3
NEW RICHMOND   CLEAR     33  28  82 SW5       29.97S WCI  29 TC   1
OSCEOLA        CLEAR     34  32  92 SW5       29.99S WCI  29 TC   1
$$

WIZ003>005-009-010-017-018-210300-
NORTH CENTRAL WISCONSIN

CITY           SKY/WX    TMP DP  RH WIND       PRES   REMARKS
MANITOWISH WTR PTCLDY    28  25  86 CALM      29.91S TC  -2
ARBOR VITAE    PTCLDY    30  25  83 CALM      29.91S TC  -1
WOODRUFF       PTCLDY    30  25  83 CALM      29.91S TC  -1
RHINELANDER    CLEAR     35  24  64 S5        29.92F WCI  31 TC   2
EAGLE RIVER    PTCLDY    35  24  66 S5        29.91F WCI  31 TC   2
LAND O LAKES   PTCLDY    34  25  68 S5        29.93S WCI  30 TC   1
PHILLIPS       PTCLDY    28  25  87 CALM      29.92S TC  -2
TOMAHAWK       CLEAR     36  27  69 CALM      29.93S TC   2
MEDFORD        CLEAR     37  24  59 SW3       29.93S TC   3
MERRILL        CLEAR     36  27  69 SW3       29.93S TC   2
$$

WIZ029-030-035-036-043>047-210300-
CENTRAL WISCONSIN

CITY           SKY/WX    TMP DP  RH WIND       PRES   REMARKS
WAUSAU         CLEAR     36  26  67 SE3       29.93S TC   2
MOSINEE        CLEAR     36  25  64 SW5       29.94S WCI  32 TC   2
MARSHFIELD     PTCLDY    38  27  64 SW7       29.95S WCI  33 TC   3
STEVENS POINT  CLEAR     34  27  75 CALM      29.96S TC   1
WAUPACA        CLEAR     35  29  79 CALM      29.98S TC   2
WAUTOMA        CLEAR    N/A N/A N/A CALM      29.99R
WISC RAPIDS    PTCLDY    41  28  60 SW7       29.98R TC   5
CAMP DOUGLAS   PTCLDY    31  24  74 CALM      29.96S TC   0
$$

WIZ011>013-019>022-031-037>040-048>050-210300-
NORTHEAST WISCONSIN

CITY           SKY/WX    TMP DP  RH WIND       PRES   REMARKS
ANTIGO         CLEAR     34  28  80 S3        29.95S TC   1
SHAWANO        CLEAR     39  31  75 CALM      29.98S TC   4
OCONTO         CLEAR     33  32  94 SE3       29.99F TC   1
STURGEON BAY   CLOUDY    40  33  76 S13       30.00F WCI  32 TC   4
GREEN BAY      CLEAR     36  29  75 CALM      29.98F TC   2
MANITOWOC      CLEAR     38  34  85 S13       30.01F WCI  30 TC   3
APPLETON       PTCLDY    37  32  81 S8        29.97F WCI  31 TC   3
CLINTONVILLE   CLEAR     36  30  79 SE3       29.98F TC   2
OSHKOSH        CLEAR     38  31  76 S10       29.98S WCI  31 TC   3
$$

WIZ032>034-041-042-053>061-210300-
SOUTHWEST WISCONSIN

CITY           SKY/WX    TMP DP  RH WIND       PRES   REMARKS
LA CROSSE      PTCLDY    37  26  64 SW5       29.99R WCI  33 TC   3
SPARTA           N/A     28  25  90 CALM      29.97  TC  -2
VIROQUA        PTCLDY    39  27  60 SW9       29.98S WCI  33 TC   4
BOSCOBEL       PTCLDY    33  24  69 CALM      30.02R TC   1
PRAIRIE DU CHI PTCLDY    42  26  52 CALM      30.01S TC   6
PLATTEVILLE    MOCLDY    39  12  32 S9        30.03S WCI  33 TC   4
$$

WIZ056-057-062-063-064-067-068-210300-
SOUTH CENTRAL WISCONSIN

CITY           SKY/WX    TMP DP  RH WIND       PRES   REMARKS
REEDSBURG      CLEAR     42  28  56 S3        29.99S TC   6
BARABOO/DELLS  CLEAR     43  30  59 SW6       29.99S TC   6
LONE ROCK      PTCLDY    35  25  66 CALM      30.01S TC   2
MINERAL POINT  PTCLDY    41  27  56 SW8       30.04S TC   5
MADISON        CLEAR     44  28  53 SW3       30.01S TC   7
MIDDLETON      CLEAR     43  34  70 S3        30.02R TC   6
WATERTOWN      CLEAR     40  32  74 S5        30.02R TC   4
MONROE         PTCLDY    43  32  65 SW10      30.03R TC   6
JANESVILLE     CLEAR     45  19  36 SW6       30.04R TC   7
$$

WIZ051-052-058>065-066-070>072-210300-
SOUTHEAST WISCONSIN

CITY           SKY/WX    TMP DP  RH WIND       PRES   REMARKS
MILWAUKEE      CLEAR     46  29  51 S9        30.03S TC   8
WAUKESHA       CLEAR     45  34  65 S9G17     30.03S TC   7
MILWAUKEE/TIMM CLEAR     45  28  53 S8        30.04S TC   7
RACINE         CLEAR     45  29  53 S7        30.06F TC   7
KENOSHA        CLEAR     50  32  50 S10       30.05S TC  10
FOND DU LAC    CLEAR     38  30  73 S8        29.99S WCI  32 TC   3
SHEBOYGAN      CLEAR     33  29  85 S8        30.01S WCI  26 TC   1
WEST BEND      CLEAR     37  30  75 S6        30.01S WCI  33 TC   3
JUNEAU         CLEAR     41  29  62 S5        30.01R TC   5
$$

LSZ147-162-210300-
LAKE SUPERIOR

STATION/POSITION TIME  TEMP    WIND        PRES    WAVE
                       AIR SEA DIR/SP/G            HT/PER
                 (UTC) (F)     (DEG/KT/KT) (MB)    (FT/S)
DEVILS ISLAND    0200   35      80/  3/  4 1013.4F
PORT WING        0140   28     150/  2/  3 1012.9S
SAXON HARBOR     0140   31     200/  3/  5 1012.9R
$$

LMZ867-665-643>646-210300-
LAKE MICHIGAN

STATION/POSITION TIME  TEMP    WIND        PRES    WAVE
                       AIR SEA DIR/SP/G            HT/PER
                 (UTC) (F)     (DEG/KT/KT) (MB)    (FT/S)
CHAMBERS ISLAND  0140   40     110/  5/ 12   N/A
NORTHPORT PIER   0100          120/  8/ 14   N/A
KEWAUNEE LAKESHO 0148   37     180/  5/  8 1015.6F
SHEBOYGAN LAKESH 0200   41     190/ 19/ 21 1016.2F
PORT WASHINGTON  0140   37     190/  5/  8 1018.3S
MILWAUKEE LAKESH 0200   46     200/  8/ 10   N/A
KENOSHA   LAKESH 0200   40     160/  7/  8 1017.9
$$

TC  - TEMPERATURE IN CELSIUS
VSB - VISIBILITY IN STATUTE MILES
WCI - WIND CHILL INDEX
HX  - HEAT INDEX




USA.gov is the U.S. government's official web portal to all federal, state and local government web resources and services.